Time,TemperatureF,DewpointF,PressureIn,WindDirection,WindDirectionDegrees,WindSpeedMPH,WindSpeedGustMPH,Humidity,HourlyPrecipIn,Conditions,Clouds,dailyrainin,SoftwareType,DateUTC
2013-03-30 00:02:00,36.0,35.0,30.39,East,86,0.0,0.0,95,0.01,,,0.14,,2013-03-30 04:02:00,
2013-03-30 00:13:00,36.0,35.0,30.39,East,86,0.0,0.0,95,0.01,,,0.14,,2013-03-30 04:13:00,
2013-03-30 00:23:00,36.0,35.0,30.39,East,86,0.0,0.0,95,0.02,,,0.15,,2013-03-30 04:23:00,
2013-03-30 00:33:00,36.0,35.0,30.39,East,86,0.0,0.0,95,0.01,,,0.15,,2013-03-30 04:33:00,
2013-03-30 00:43:00,36.0,35.0,30.39,East,86,0.0,0.0,95,0.01,,,0.15,,2013-03-30 04:43:00,
2013-03-30 00:52:00,36.0,35.0,30.38,East,86,0.0,0.0,95,0.01,,,0.15,,2013-03-30 04:52:00,
2013-03-30 01:02:00,36.0,35.0,30.38,East,86,0.0,0.0,95,0.01,,,0.15,,2013-03-30 05:02:00,
2013-03-30 01:12:00,36.0,35.0,30.38,East,86,0.0,0.0,95,0.01,,,0.15,,2013-03-30 05:12:00,
2013-03-30 01:22:00,35.0,34.0,30.38,East,86,0.0,0.0,96,0.00,,,0.15,,2013-03-30 05:22:00,
2013-03-30 01:32:00,35.0,34.0,30.37,East,86,0.0,0.0,96,0.01,,,0.16,,2013-03-30 05:32:00,
2013-03-30 01:42:00,35.0,34.0,30.37,East,86,0.0,0.0,96,0.01,,,0.16,,2013-03-30 05:42:00,
2013-03-30 01:52:00,36.0,35.0,30.37,East,96,0.0,0.0,96,0.01,,,0.16,,2013-03-30 05:52:00,
2013-03-30 02:02:00,36.0,35.0,30.37,East,96,0.0,0.0,96,0.01,,,0.16,,2013-03-30 06:02:00,
2013-03-30 02:12:00,36.0,35.0,30.37,East,96,0.0,0.0,96,0.01,,,0.16,,2013-03-30 06:12:00,
2013-03-30 02:23:00,36.0,35.0,30.36,East,96,0.0,1.0,96,0.01,,,0.16,,2013-03-30 06:23:00,
2013-03-30 02:32:00,35.0,34.0,30.36,East,96,0.0,0.0,96,0.00,,,0.16,,2013-03-30 06:32:00,
2013-03-30 02:42:00,35.0,34.0,30.36,East,96,0.0,0.0,96,0.00,,,0.16,,2013-03-30 06:42:00,
2013-03-30 02:52:00,36.0,35.0,30.35,East,96,0.0,2.0,96,0.00,,,0.16,,2013-03-30 06:52:00,
2013-03-30 03:02:00,36.0,35.0,30.36,East,96,0.0,0.0,96,0.01,,,0.17,,2013-03-30 07:02:00,
2013-03-30 03:12:00,36.0,35.0,30.36,East,96,0.0,0.0,96,0.01,,,0.17,,2013-03-30 07:12:00,
2013-03-30 03:22:00,36.0,35.0,30.35,East,96,0.0,0.0,96,0.01,,,0.17,,2013-03-30 07:22:00,
2013-03-30 03:32:00,36.0,35.0,30.35,East,96,0.0,2.0,96,0.01,,,0.17,,2013-03-30 07:32:00,
2013-03-30 03:42:00,36.0,35.0,30.35,East,96,0.0,2.0,96,0.01,,,0.17,,2013-03-30 07:42:00,
2013-03-30 03:52:00,36.0,35.0,30.35,SSW,201,0.0,3.0,96,0.01,,,0.17,,2013-03-30 07:52:00,
2013-03-30 04:02:00,36.0,35.0,30.35,ESE,122,0.0,1.0,96,0.01,,,0.18,,2013-03-30 08:02:00,
2013-03-30 04:12:00,36.0,35.0,30.35,ESE,122,0.0,1.0,96,0.01,,,0.18,,2013-03-30 08:12:00,
2013-03-30 04:22:00,36.0,35.0,30.34,ESE,122,0.0,1.0,96,0.01,,,0.18,,2013-03-30 08:22:00,
2013-03-30 04:32:00,36.0,35.0,30.35,WSW,258,0.0,4.0,96,0.01,,,0.18,,2013-03-30 08:32:00,
2013-03-30 04:42:00,36.0,35.0,30.35,WSW,258,0.0,4.0,96,0.01,,,0.18,,2013-03-30 08:42:00,
2013-03-30 04:52:00,36.0,35.0,30.35,East,96,0.0,3.0,96,0.02,,,0.19,,2013-03-30 08:52:00,
2013-03-30 05:02:00,36.0,35.0,30.35,NNW,331,1.0,2.0,96,0.01,,,0.19,,2013-03-30 09:02:00,
2013-03-30 05:12:00,36.0,35.0,30.35,NNW,331,1.0,2.0,96,0.01,,,0.19,,2013-03-30 09:12:00,
2013-03-30 05:22:00,36.0,35.0,30.34,NNW,331,0.0,1.0,96,0.01,,,0.19,,2013-03-30 09:22:00,
2013-03-30 05:33:00,36.0,35.0,30.34,ENE,63,0.0,1.0,96,0.02,,,0.21,,2013-03-30 09:33:00,
2013-03-30 05:43:00,36.0,35.0,30.34,ENE,63,0.0,1.0,96,0.02,,,0.21,,2013-03-30 09:43:00,
2013-03-30 05:53:00,36.0,35.0,30.34,ENE,63,0.0,1.0,96,0.02,,,0.21,,2013-03-30 09:53:00,
2013-03-30 06:03:00,36.0,35.0,30.34,ENE,63,0.0,0.0,96,0.03,,,0.22,,2013-03-30 10:03:00,
2013-03-30 06:13:00,36.0,35.0,30.34,ENE,63,0.0,0.0,96,0.03,,,0.22,,2013-03-30 10:13:00,
2013-03-30 06:23:00,36.0,35.0,30.34,ENE,63,0.0,0.0,96,0.03,,,0.22,,2013-03-30 10:23:00,
2013-03-30 06:33:00,36.0,35.0,30.34,ENE,63,0.0,0.0,96,0.04,,,0.23,,2013-03-30 10:33:00,
2013-03-30 06:42:00,36.0,35.0,30.34,ENE,63,0.0,0.0,96,0.04,,,0.23,,2013-03-30 10:42:00,
2013-03-30 06:52:00,36.0,35.0,30.33,ENE,63,0.0,0.0,96,0.02,,,0.23,,2013-03-30 10:52:00,
2013-03-30 07:04:00,36.0,35.0,30.33,ENE,63,0.0,0.0,96,0.01,,,0.23,,2013-03-30 11:04:00,
2013-03-30 07:12:00,36.0,35.0,30.33,ENE,63,0.0,0.0,96,0.01,,,0.23,,2013-03-30 11:12:00,
2013-03-30 07:23:00,36.0,35.0,30.33,ENE,63,0.0,0.0,97,0.00,,,0.23,,2013-03-30 11:23:00,
2013-03-30 07:33:00,36.0,35.0,30.33,ENE,63,0.0,0.0,97,0.00,,,0.23,,2013-03-30 11:33:00,
2013-03-30 07:42:00,36.0,35.0,30.33,ENE,63,0.0,0.0,97,0.00,,,0.23,,2013-03-30 11:42:00,
2013-03-30 07:52:00,36.0,35.0,30.33,ENE,63,0.0,0.0,97,0.00,,,0.23,,2013-03-30 11:52:00,
2013-03-30 08:02:00,36.0,35.0,30.33,ENE,63,0.0,0.0,97,0.00,,,0.23,,2013-03-30 12:02:00,
2013-03-30 08:13:00,36.0,35.0,30.33,ENE,63,0.0,0.0,97,0.00,,,0.23,,2013-03-30 12:13:00,
2013-03-30 08:22:00,36.0,35.0,30.33,ENE,63,0.0,0.0,96,0.00,,,0.23,,2013-03-30 12:22:00,
2013-03-30 08:33:00,36.0,35.0,30.34,ENE,63,0.0,0.0,97,0.00,,,0.23,,2013-03-30 12:33:00,
2013-03-30 08:42:00,36.0,35.0,30.34,ENE,63,0.0,0.0,97,0.00,,,0.23,,2013-03-30 12:42:00,
2013-03-30 08:52:00,36.0,35.0,30.33,ENE,63,0.0,0.0,97,0.00,,,0.23,,2013-03-30 12:52:00,
2013-03-30 09:02:00,37.0,36.0,30.34,ENE,63,0.0,0.0,97,0.00,,,0.23,,2013-03-30 13:02:00,
2013-03-30 09:12:00,37.0,36.0,30.34,ENE,63,0.0,0.0,97,0.00,,,0.23,,2013-03-30 13:12:00,
2013-03-30 09:22:00,38.0,37.0,30.34,ENE,63,0.0,0.0,97,0.00,,,0.23,,2013-03-30 13:22:00,
2013-03-30 09:32:00,39.0,38.0,30.34,ENE,63,0.0,1.0,97,0.00,,,0.23,,2013-03-30 13:32:00,
2013-03-30 09:43:00,39.0,38.0,30.34,ENE,63,0.0,1.0,97,0.00,,,0.23,,2013-03-30 13:43:00,
2013-03-30 09:52:00,40.0,39.0,30.34,ENE,63,0.0,0.0,97,0.00,,,0.23,,2013-03-30 13:52:00,
2013-03-30 10:03:00,41.0,40.0,30.34,ENE,63,0.0,1.0,97,0.00,,,0.23,,2013-03-30 14:03:00,
2013-03-30 10:12:00,41.0,40.0,30.34,ENE,63,0.0,1.0,97,0.00,,,0.23,,2013-03-30 14:12:00,
2013-03-30 10:23:00,42.0,41.0,30.34,ENE,74,0.0,3.0,97,0.00,,,0.23,,2013-03-30 14:23:00,
2013-03-30 10:32:00,42.0,41.0,30.34,ENE,74,0.0,3.0,97,0.00,,,0.23,,2013-03-30 14:32:00,
2013-03-30 10:42:00,42.0,41.0,30.34,ENE,74,0.0,3.0,97,0.00,,,0.23,,2013-03-30 14:42:00,
2013-03-30 10:52:00,43.0,42.0,30.33,East,81,0.0,3.0,97,0.00,,,0.23,,2013-03-30 14:52:00,
2013-03-30 11:03:00,44.0,43.0,30.32,East,81,0.0,1.0,97,0.00,,,0.23,,2013-03-30 15:03:00,
2013-03-30 11:12:00,44.0,43.0,30.32,East,81,0.0,1.0,97,0.00,,,0.23,,2013-03-30 15:12:00,
2013-03-30 11:23:00,45.0,44.0,30.32,East,100,1.0,3.0,97,0.00,,,0.23,,2013-03-30 15:23:00,
2013-03-30 11:34:00,46.0,44.0,30.33,East,82,0.0,2.0,92,0.00,,,0.23,,2013-03-30 15:34:00,
2013-03-30 11:43:00,46.0,44.0,30.33,East,82,0.0,2.0,92,0.00,,,0.23,,2013-03-30 15:43:00,
2013-03-30 11:52:00,46.0,43.0,30.32,ENE,68,1.0,4.0,90,0.00,,,0.23,,2013-03-30 15:52:00,
2013-03-30 12:03:00,48.0,45.0,30.32,East,97,0.0,2.0,89,0.00,,,0.23,,2013-03-30 16:03:00,
2013-03-30 12:13:00,49.0,46.0,30.31,SE,141,0.0,3.0,88,0.00,,,0.23,,2013-03-30 16:13:00,
2013-03-30 12:23:00,49.0,46.0,30.31,SE,141,0.0,3.0,88,0.00,,,0.23,,2013-03-30 16:23:00,
2013-03-30 12:33:00,49.0,45.0,30.30,ENE,72,1.0,6.0,86,0.00,,,0.23,,2013-03-30 16:33:00,
2013-03-30 12:43:00,49.0,45.0,30.30,ENE,72,1.0,6.0,86,0.00,,,0.23,,2013-03-30 16:43:00,
2013-03-30 12:52:00,50.0,44.0,30.29,ENE,58,2.0,4.0,79,0.00,,,0.23,,2013-03-30 16:52:00,
2013-03-30 13:02:00,51.0,44.0,30.29,South,175,1.0,5.0,78,0.00,,,0.23,,2013-03-30 17:02:00,
2013-03-30 13:13:00,51.0,44.0,30.29,South,175,1.0,5.0,78,0.00,,,0.23,,2013-03-30 17:13:00,
2013-03-30 13:23:00,52.0,44.0,30.29,SW,228,3.0,9.0,75,0.00,,,0.23,,2013-03-30 17:23:00,
2013-03-30 13:33:00,50.0,42.0,30.28,SW,235,3.0,7.0,73,0.00,,,0.23,,2013-03-30 17:33:00,
2013-03-30 13:42:00,50.0,42.0,30.28,SW,235,3.0,7.0,73,0.00,,,0.23,,2013-03-30 17:42:00,
2013-03-30 13:52:00,50.0,42.0,30.28,SW,235,3.0,7.0,73,0.00,,,0.23,,2013-03-30 17:52:00,
2013-03-30 14:03:00,51.0,44.0,30.27,WSW,253,3.0,9.0,78,0.00,,,0.23,,2013-03-30 18:03:00,
2013-03-30 14:13:00,52.0,43.0,30.27,WSW,245,3.0,11.0,71,0.00,,,0.23,,2013-03-30 18:13:00,
2013-03-30 14:22:00,52.0,43.0,30.27,WSW,245,3.0,11.0,71,0.00,,,0.23,,2013-03-30 18:22:00,
2013-03-30 14:33:00,53.0,45.0,30.26,West,271,2.0,6.0,74,0.00,,,0.23,,2013-03-30 18:33:00,
2013-03-30 14:42:00,53.0,45.0,30.26,West,271,2.0,6.0,74,0.00,,,0.23,,2013-03-30 18:42:00,
2013-03-30 14:53:00,53.0,43.0,30.25,WSW,238,2.0,10.0,68,0.00,,,0.23,,2013-03-30 18:53:00,
2013-03-30 15:03:00,54.0,44.0,30.25,WSW,243,2.0,11.0,69,0.00,,,0.23,,2013-03-30 19:03:00,
2013-03-30 15:13:00,54.0,44.0,30.25,WSW,243,2.0,11.0,69,0.00,,,0.23,,2013-03-30 19:13:00,
2013-03-30 15:22:00,56.0,44.0,30.24,ESE,105,3.0,11.0,64,0.00,,,0.23,,2013-03-30 19:22:00,
2013-03-30 15:32:00,58.0,42.0,30.24,SSW,200,3.0,12.0,55,0.00,,,0.23,,2013-03-30 19:32:00,
2013-03-30 15:42:00,58.0,42.0,30.24,SSW,200,3.0,12.0,55,0.00,,,0.23,,2013-03-30 19:42:00,
2013-03-30 15:52:00,58.0,43.0,30.23,WNW,302,3.0,8.0,58,0.00,,,0.23,,2013-03-30 19:52:00,
2013-03-30 16:02:00,59.0,43.0,30.22,WSW,248,4.0,10.0,56,0.00,,,0.23,,2013-03-30 20:02:00,
2013-03-30 16:12:00,59.0,43.0,30.22,WSW,248,4.0,10.0,56,0.00,,,0.23,,2013-03-30 20:12:00,
2013-03-30 16:22:00,59.0,42.0,30.21,West,281,5.0,10.0,54,0.00,,,0.23,,2013-03-30 20:22:00,
2013-03-30 16:33:00,58.0,40.0,30.20,NNW,330,0.0,4.0,52,0.00,,,0.23,,2013-03-30 20:33:00,
2013-03-30 16:43:00,58.0,40.0,30.20,NNW,330,0.0,4.0,52,0.00,,,0.23,,2013-03-30 20:43:00,
2013-03-30 16:52:00,59.0,42.0,30.20,ESE,120,1.0,7.0,54,0.00,,,0.23,,2013-03-30 20:52:00,
2013-03-30 17:03:00,59.0,42.0,30.20,West,278,2.0,8.0,54,0.00,,,0.23,,2013-03-30 21:03:00,
2013-03-30 17:13:00,59.0,42.0,30.20,West,278,2.0,8.0,54,0.00,,,0.23,,2013-03-30 21:13:00,
2013-03-30 17:23:00,59.0,41.0,30.19,West,281,2.0,7.0,52,0.00,,,0.23,,2013-03-30 21:23:00,
2013-03-30 17:34:00,59.0,41.0,30.19,West,281,2.0,7.0,52,0.00,,,0.23,,2013-03-30 21:34:00,
2013-03-30 17:43:00,59.0,41.0,30.19,West,281,2.0,7.0,52,0.00,,,0.23,,2013-03-30 21:43:00,
2013-03-30 17:53:00,60.0,41.0,30.19,SSW,199,3.0,6.0,50,0.00,,,0.20,,2013-03-30 21:53:00,
2013-03-30 18:03:00,59.0,40.0,30.18,SSW,207,0.0,7.0,50,0.00,,,0.20,,2013-03-30 22:03:00,
2013-03-30 18:13:00,59.0,40.0,30.18,SSW,207,0.0,7.0,50,0.00,,,0.20,,2013-03-30 22:13:00,
2013-03-30 18:23:00,59.0,39.0,30.18,West,274,1.0,7.0,48,0.00,,,0.20,,2013-03-30 22:23:00,
2013-03-30 18:33:00,59.0,41.0,30.18,South,175,1.0,6.0,51,0.00,,,0.17,,2013-03-30 22:33:00,
2013-03-30 18:43:00,59.0,41.0,30.18,South,175,1.0,6.0,51,0.00,,,0.17,,2013-03-30 22:43:00,
2013-03-30 18:53:00,58.0,39.0,30.17,SSW,194,2.0,6.0,50,0.00,,,0.17,,2013-03-30 22:53:00,
2013-03-30 19:03:00,57.0,39.0,30.17,West,259,0.0,5.0,50,0.00,,,0.17,,2013-03-30 23:03:00,
2013-03-30 19:13:00,57.0,39.0,30.17,West,259,0.0,5.0,50,0.00,,,0.17,,2013-03-30 23:13:00,
2013-03-30 19:22:00,57.0,39.0,30.17,SW,233,3.0,7.0,50,0.00,,,0.17,,2013-03-30 23:22:00,
2013-03-30 19:33:00,56.0,38.0,30.17,SSW,203,3.0,10.0,51,0.00,,,0.13,,2013-03-30 23:33:00,
2013-03-30 19:42:00,56.0,38.0,30.17,SSW,203,3.0,10.0,51,0.00,,,0.13,,2013-03-30 23:42:00,
2013-03-30 19:52:00,56.0,38.0,30.17,South,190,2.0,6.0,50,0.00,,,0.13,,2013-03-30 23:52:00,
2013-03-30 20:03:00,55.0,38.0,30.16,SW,235,2.0,10.0,53,0.00,,,0.13,,2013-03-31 00:03:00,
2013-03-30 20:12:00,55.0,38.0,30.16,SW,235,2.0,10.0,53,0.00,,,0.13,,2013-03-31 00:12:00,
2013-03-30 20:22:00,55.0,38.0,30.16,SSW,208,2.0,7.0,53,0.00,,,0.13,,2013-03-31 00:22:00,
2013-03-30 20:32:00,54.0,38.0,30.16,WSW,246,0.0,5.0,54,0.00,,,0.10,,2013-03-31 00:32:00,
2013-03-30 20:43:00,54.0,38.0,30.16,WSW,246,0.0,5.0,54,0.00,,,0.10,,2013-03-31 00:43:00,
2013-03-30 20:52:00,54.0,38.0,30.16,SSW,197,1.0,7.0,55,0.00,,,0.10,,2013-03-31 00:52:00,
2013-03-30 21:02:00,53.0,38.0,30.16,SSW,208,2.0,8.0,56,0.00,,,0.10,,2013-03-31 01:02:00,
2013-03-30 21:12:00,53.0,38.0,30.16,SSW,208,2.0,8.0,56,0.00,,,0.10,,2013-03-31 01:12:00,
2013-03-30 21:22:00,53.0,38.0,30.15,South,183,0.0,4.0,57,0.00,,,0.10,,2013-03-31 01:22:00,
2013-03-30 21:32:00,52.0,37.0,30.15,South,183,0.0,1.0,57,0.00,,,0.10,,2013-03-31 01:32:00,
2013-03-30 21:42:00,52.0,37.0,30.15,South,183,0.0,1.0,57,0.00,,,0.10,,2013-03-31 01:42:00,
2013-03-30 21:52:00,52.0,38.0,30.15,South,183,1.0,2.0,58,0.00,,,0.10,,2013-03-31 01:52:00,
2013-03-30 22:02:00,52.0,38.0,30.15,SSW,210,0.0,1.0,58,0.00,,,0.10,,2013-03-31 02:02:00,
2013-03-30 22:13:00,52.0,38.0,30.15,SSW,210,0.0,1.0,58,0.00,,,0.10,,2013-03-31 02:13:00,
2013-03-30 22:22:00,52.0,38.0,30.16,SW,229,1.0,10.0,59,0.00,,,0.10,,2013-03-31 02:22:00,
2013-03-30 22:33:00,53.0,39.0,30.16,WNW,284,2.0,7.0,59,0.00,,,0.10,,2013-03-31 02:33:00,
2013-03-30 22:43:00,53.0,39.0,30.16,WNW,284,2.0,7.0,59,0.00,,,0.10,,2013-03-31 02:43:00,
2013-03-30 22:52:00,53.0,39.0,30.16,SW,222,2.0,7.0,60,0.00,,,0.10,,2013-03-31 02:52:00,
2013-03-30 23:02:00,52.0,40.0,30.16,WSW,238,5.0,9.0,64,0.00,,,0.10,,2013-03-31 03:02:00,
2013-03-30 23:13:00,52.0,40.0,30.16,WSW,238,5.0,9.0,64,0.00,,,0.10,,2013-03-31 03:13:00,
2013-03-30 23:22:00,51.0,43.0,30.17,WSW,238,1.0,6.0,73,0.01,,,0.11,,2013-03-31 03:22:00,
2013-03-30 23:33:00,49.0,43.0,30.16,WSW,248,1.0,6.0,80,0.02,,,0.12,,2013-03-31 03:33:00,
2013-03-30 23:43:00,49.0,43.0,30.16,WSW,248,1.0,6.0,80,0.02,,,0.12,,2013-03-31 03:43:00,
2013-03-30 23:53:00,48.0,43.0,30.16,WSW,240,3.0,6.0,84,0.04,,,0.14,,2013-03-31 03:53:00,